Location: Hilton Head Island
(32.2163°N, 80.7526°W)
Time: 08:55:28
(UTC-04:00)

Tiros 1 despin weight - Pass Details

Date: 18 February 2026
Orbit: 555 x 593 km, 48.2° (Epoch: 17 March)

Event Time Altitude Azimuth Distance (km) Brightness Sun altitude
Rises 13:31:05 0° 211° (SSW) 2,747 ? 44.5°
Reaches altitude 10° 13:33:27 10° 203° (SSW) 1,847 ? 44.3°
Maximum altitude 13:37:23 39° 135° (SE) 851 ? 44.0°
Drops below altitude 10° 13:41:17 10° 66° (ENE) 1,838 ? 43.7°
Sets 13:43:38 0° 58° (ENE) 2,732 ? 43.5°
